Taconite, MN (55786)

8:51 AM CDT on September 02, 2015 (GMT -0500)
Calumet, MN | | Change Station
CLOSE
Current Station
Personal Weather Station
Location: Bovey, MN
Elevation: 1381 ft
Nearby Weather Stations

Elev 1381 ft 47.32 °N, 93.28 °W | Updated 11 minutes ago

Partly Cloudy
Partly Cloudy
67.8 °F
Feels Like 67.8 °F
N
0.0
Wind Variable Wind from ESE

Today
High -- | Low -- °F
--% Chance of Precip.
Yesterday
High -- | Low -- °F
Precip. -- in
6:33 AM 7:52 PM
Waning Gibbous, 80% visible
Pressure 29.95 in
Visibility 0.8 miles
Clouds Few 800 ft
Mostly Cloudy 1600 ft
Overcast 3300 ft
Dew Point 66 °F
Humidity 94%
Rainfall 0.00 in
Snow Depth Not available.
UV 1 out of 12
Pollen 10.30 out of 12
Air Quality Not available.
Flu Activity Not available.
METAR KHIB 021349Z AUTO 11020G32KT 3/4SM +TSRA BR FEW008 BKN016 OVC033 19/18 A2995 RMK AO2 PK WND 12032/1346 LTG DSNT NE-S RAB12 TSB17 SLP141 P0053 T01940183
Pressure 29.95 in
Visibility 0.8 miles
Clouds Few 800 ft
Mostly Cloudy 1600 ft
Overcast 3300 ft
Dew Point 66 °F
Humidity 94%
Rainfall 0.00 in
Snow Depth Not available.
UV 1 out of 12
Pollen 10.30 out of 12
Air Quality Not available.
Flu Activity Not available.
METAR KHIB 021349Z AUTO 11020G32KT 3/4SM +TSRA BR FEW008 BKN016 OVC033 19/18 A2995 RMK AO2 PK WND 12032/1346 LTG DSNT NE-S RAB12 TSB17 SLP141 P0053 T01940183

10-Day Weather Forecast

×

Almanac

Astronomy

Sep. 02, 2015 Rise Set
Actual Time
Civil Twilight
Nautical Twilight
Astronomical Twilight
Moon
Length of Visible Light
Length of Day
Tomorrow will be .
, % of the Moon is Illuminated

Today's Extremes

State Highs State Lows

Community

WunderPhotos

Upload Photos

1,851,754 photos uploaded!

WunderBlogs® & News

Nearby

Air Quality

  Air Quality AQ Index Pollutant
Not available.

Snow Depth

Station Depth Elevation

Earthquake Activity

City Distance Mag. Time & Date
Minimum magnitude displayed is 2.5.

Coastal Water Temperatures

Place Temperature

Stations

Nearby Weather Stations

Station Location Temp. Windchill Dew Point Humidity Wind Precip. Elev Updated Type